Tracking 30160 objects as of 14-Feb-2025
HD Live streaming from Space Station
objects crossing your sky now

COSMOS 1275 DEB

Track COSMOS 1275 DEB now!
10-day predictions


NORAD ID: 17637
Int'l Code: 1981-053LK
Perigee: 924.8 km
Apogee: 1,126.5 km
Inclination: 83.1 °
Period: 105.5 minutes
Semi major axis: 7396 km
RCS: 0.0105 m2 (small)
Launch date: June 4, 1981
Source: Commonwealth of Independent States (former USSR) (CIS)
Launch site: PLESETSK MISSILE AND SPACE COMPLEX (PKMTR)

Note: This is SATELLITE DEBRIS
Your satellite tracking list
Your tracking list is empty




NASA's NSSDC Master Catalog

Two Line Element Set (TLE):
1 17637U 81053LG  25044.58208718  .00002146  00000-0  24838-2 0  9995
2 17637  83.0736 154.8739 0136380 149.6035 225.3707 13.64745263969965
Source of the keplerian elements: AFSPC